Flag for Germany Weather for the Past 2 Weeks in Menden (Sauerland), North Rhine-Westphalia, Germany

Now
45 °F

Light rain. Passing clouds.


Feels Like: 34 °F
Forecast: 37 / 41 °F
Wind: 32 mph from Southwest

Location: Dortmund / Wickede

Current Time: Feb 9, 2016 at 1:22:44 AM

Latest Report: Feb 8, 2016 at 10:50 PM


Visibility: N/A

Pressure: 29.36 "Hg

Humidity: 66%

Dew point: 34 °F

Location of Menden (Sauerland)Location

Historic Weather in Menden (Sauerland) — Graph

°F

Menden (Sauerland) Temperature Yesterday

Maximum temperature yesterday: 48 °F (at 1:50 PM)
Minimum temperature yesterday: 41 °F (at 4:20 PM)
Average temperature yesterday: 45 °F

High & Low Weather Summary for the Past Weeks

 TemperatureHumidityPressure
High54 °F (Jan 25, 3:20 PM)94% (Feb 1, 7:20 AM)30.36 "Hg (Feb 1, 7:20 AM)
Low36 °F (Jan 28, 7:50 PM)53% (Jan 28, 2:20 PM)29.24 "Hg (Feb 8, 11:20 AM)
Average45 °F75%29.95 "Hg
* Reported Jan 24 10:20 PM — Feb 8 10:50 PM, Menden (Sauerland), Weather by CustomWeather, © 2016

Note: Actual official high and low records may vary slightly from our data, if they occured in-between our weather recording intervals... More about our weather records

Advertising

Menden (Sauerland) Weather History for the Previous 24 Hours

 ConditionsComfort  
Time TempWeatherWind HumidityBarometerVisibility
10:50 PM
Mon, Feb 8
45 °FLight rain. Passing clouds.32 mph66%29.36 "HgN/A
10:20 PM45 °FPassing clouds.30 mph66%29.33 "HgN/A
9:50 PM45 °FLight rain. Passing clouds.30 mph66%29.33 "HgN/A
9:20 PM46 °FPassing clouds.32 mph57%29.30 "HgN/A
8:50 PM45 °FLight rain. Passing clouds.29 mph66%29.30 "HgN/A
8:20 PM45 °FLight rain. Passing clouds.31 mph61%29.30 "HgN/A
7:50 PM45 °FPassing clouds.33 mph61%29.30 "HgN/A
7:20 PM45 °FSprinkles. Passing clouds.29 mph66%29.30 "HgN/A
6:50 PM46 °FPassing clouds.32 mph57%29.30 "HgN/A
6:20 PM45 °FPassing clouds.29 mph61%29.30 "HgN/A
5:50 PM45 °FPassing clouds.30 mph61%29.27 "HgN/A
5:20 PM45 °FPartly sunny.36 mph61%29.27 "HgN/A
4:50 PM43 °FSunny.15 mph76%29.27 "Hg10 mi
4:20 PM41 °FPassing clouds.15 mph76%29.27 "HgN/A
3:50 PM46 °FThundershowers. Partly sunny.17 mph62%29.27 "Hg6 mi
3:20 PM46 °FPartly sunny.24 mph62%29.24 "HgN/A
2:50 PM46 °FScattered clouds.20 mph66%29.24 "HgN/A
2:20 PM43 °FScattered clouds.21 mph81%29.27 "HgN/A
1:50 PM48 °FScattered showers. Partly sunny.23 mph62%29.24 "HgN/A
1:20 PM46 °FPartly sunny.21 mph66%29.24 "HgN/A
12:50 PM46 °FScattered clouds.22 mph71%29.24 "HgN/A
12:20 PM46 °FPartly sunny.24 mph71%29.27 "HgN/A
11:50 AM46 °FBroken clouds.21 mph71%29.27 "HgN/A
11:20 AM46 °FBroken clouds.25 mph76%29.24 "HgN/A
10:50 AM45 °FScattered clouds.20 mph76%29.27 "HgN/A
10:20 AM45 °FLight rain. Partly sunny.25 mph76%29.27 "HgN/A
9:50 AM45 °FLight rain. Partly sunny.21 mph81%29.30 "Hg6 mi
9:20 AM45 °FLight rain. Partly sunny.18 mph81%29.30 "Hg5 mi
8:50 AM45 °FLight rain. Partly sunny.23 mph81%29.27 "Hg6 mi
8:20 AM45 °FLight rain. Partly sunny.24 mph81%29.27 "HgN/A
7:50 AM45 °FLight rain. Partly cloudy.26 mph76%29.27 "Hg5 mi
7:20 AM45 °FLight rain. Passing clouds.23 mph76%29.27 "HgN/A
6:50 AM45 °FLight rain. Passing clouds.22 mph76%29.30 "HgN/A
6:20 AM45 °FLight rain. Passing clouds.26 mph71%29.33 "HgN/A
5:50 AM46 °FLight rain. Passing clouds.26 mph62%29.33 "HgN/A
5:20 AM45 °FPassing clouds.23 mph66%29.33 "HgN/A
Weather by CustomWeather, © 2016

See weather overviewHow to use our weather pages